This is the latest recevied weather packets stored in our database for station/object EA5AER-5. If no packets are shown the sender has not sent any weather packets the latest 10 day(s).
| Time | Temp. | Humidity | Pressure | Rain* | Wind** | Luminosity | Snow |
|---|---|---|---|---|---|---|---|
| 1777156528 | 15.56° C | 34% | 1016.6 hPa | 0 mm | - | 0 W/m² | - |
| 1777155346 | 17.22° C | 48% | 1016.5 hPa | 0 mm | - | 0 W/m² | - |
| 1777154191 | 17.22° C | 48% | 1016.5 hPa | 0 mm | - | 0 W/m² | - |
| 1777153024 | 17.22° C | 48% | 1016.5 hPa | 0 mm | - | 0 W/m² | - |
| 1777151795 | 17.22° C | 48% | 1016.5 hPa | 0 mm | - | 0 W/m² | - |
| 1777150636 | 17.22° C | 48% | 1016.5 hPa | 0 mm | - | 0 W/m² | - |
| 1777149428 | 17.22° C | 52% | 1016.1 hPa | 0 mm | - | 0 W/m² | - |
| 1777148205 | 17.78° C | 55% | 1015.4 hPa | 0 mm | - | 0 W/m² | - |
| 1777146991 | 17.78° C | 55% | 1015.4 hPa | 0 mm | - | 0 W/m² | - |
| 1777145766 | 17.78° C | 55% | 1015.4 hPa | 0 mm | - | 0 W/m² | - |
| 1777144609 | 17.78° C | 55% | 1015.2 hPa | 0 mm | - | 0 W/m² | - |
| 1777143328 | 18.33° C | 58% | 1015 hPa | 0 mm | - | 14 W/m² | - |
| 1777142172 | 18.33° C | 58% | 1015 hPa | 0 mm | - | 14 W/m² | - |
| 1777140905 | 18.33° C | 59% | 1014.9 hPa | 0 mm | - | 37 W/m² | - |
| 1777139636 | 18.33° C | 62% | 1015 hPa | 0 mm | - | 151 W/m² | - |
| 1777138508 | 18.33° C | 62% | 1015 hPa | 0 mm | - | 151 W/m² | - |
| 1777137283 | 18.89° C | 65% | 1014.9 hPa | 0 mm | - | 230 W/m² | - |
| 1777136105 | 18.89° C | 65% | 1014.9 hPa | 0 mm | - | 230 W/m² | - |
| 1777134909 | 18.89° C | 65% | 1014.9 hPa | 0 mm | - | 230 W/m² | - |
| 1777133757 | 18.89° C | 65% | 1014.8 hPa | 0 mm | - | 309 W/m² | - |
| 1777132550 | 18.89° C | 67% | 1014.8 hPa | 0 mm | - | 360 W/m² | - |
| 1777131313 | 18.89° C | 68% | 1015.4 hPa | 0 mm | - | 480 W/m² | - |
| 1777130094 | 18.89° C | 68% | 1015.4 hPa | 0 mm | - | 480 W/m² | - |
| 1777128964 | 18.89° C | 68% | 1015.4 hPa | 0 mm | - | 480 W/m² | - |
| 1777127754 | 18.89° C | 68% | 1015.4 hPa | 0 mm | - | 480 W/m² | - |
* Rain latest hour (hover to see other rain measurements)
** Current wind speed in m/s (hover to see current wind gust speed)